Snow/Ice From: 24-10-2018 05:00 Until: 09:00 warning for: Snow/Ice Level: Yellow info button
suomi:
Liikennesää: Ajokeli muuttuu huonoksi aamulla tienpintojen jäätymisen vuoksi.

svenska:
Trafikvädret: Väglaget blir dåligt på morgonen p.g.a. tillfrysning av vägytor.

english:
Traffic weather warning: Bad road conditions are expected in the morning because of ice-covered roads. 


Thunder radar more information blitzortung!


Löydät sääaseman tiedot myös:

European Weather Network

Finland Weather Exchange

Weather Underground

AWEKAS



Weather Underground säähistoriasivu

Päivittäin yhteenveto Tammikuu 28, 2017 Yksiköt:  Englantilaiset    Metriset   Molemmat
« Edellinen Päivä
Seuraava Päivä »
Päivittäin Viikoittain Kuukausittain Vuosittain Mukautettu
  Korkea: Matala: Keskiarvo:
Lämpötila: TemperatureF °F 31.5 °F 33.3 °F
Kastepiste: DewpointF °F 29.5 °F 30.6 °F
Kosteus: Humidity % 76 % 89 %
Tuulen nopeus: WindSpeedMPH mph 0.0 mph 0 mph
Tuulenpuuska: WindSpeedGustMPH mph - -
Tuuli:- - North
Ilmanpaine: PressureIn in 30.00 in -
Sade: 0.00 in    
Historical Graphs
 
 
Taulukkotiedot Tammikuu 28, 2017
Aika Lämpötila Kastepiste Ilmanpaine Tuuli Tuulen nopeus Tuulenpuuska Kosteus Sademäärä (tunneittain)
TemperatureF °F DewpointF °F PressureIn in Calm     Humidity % HourlyPrecipIn in
00:00 35.1 °F 30.7 °F 30.03 in Calm     84 % 0.00 in
00:15 34.9 °F 30.4 °F 30.03 in Calm     84 % 0.00 in
00:30 34.9 °F 30.2 °F 30.03 in Calm     83 % 0.00 in
01:00 34.5 °F 29.8 °F 30.03 in Calm     83 % 0.00 in
01:15 35.1 °F 29.8 °F 30.02 in Calm     81 % 0.00 in
01:30 35.6 °F 29.7 °F 30.02 in Calm     79 % 0.00 in
01:45 35.8 °F 29.5 °F 30.02 in Calm     78 % 0.00 in
02:00 36.3 °F 29.8 °F 30.02 in Calm     77 % 0.00 in
02:15 36.7 °F 29.7 °F 30.02 in Calm     76 % 0.00 in
02:30 36.7 °F 30.0 °F 30.02 in Calm     77 % 0.00 in
02:45 36.9 °F 30.4 °F 30.02 in Calm     77 % 0.00 in
03:00 37.0 °F 30.6 °F 30.02 in Calm     77 % 0.00 in
03:15 37.0 °F 30.9 °F 30.01 in Calm     78 % 0.00 in
03:30 37.0 °F 30.7 °F 30.01 in Calm     78 % 0.00 in
03:45 36.9 °F 30.9 °F 30.01 in Calm     79 % 0.00 in
04:00 36.9 °F 30.9 °F 30.00 in Calm     79 % 0.00 in
04:15 36.9 °F 30.9 °F 30.01 in Calm     79 % 0.00 in
04:30 36.7 °F 30.7 °F 30.01 in Calm     79 % 0.00 in
04:45 36.7 °F 31.1 °F 30.00 in Calm     80 % 0.00 in
05:00 36.3 °F 31.1 °F 30.00 in Calm     81 % 0.00 in
05:30 36.0 °F 32.2 °F 30.01 in Calm     86 % 0.00 in
05:45 35.8 °F 32.2 °F 30.00 in Calm     87 % 0.00 in
06:00 35.4 °F 32.2 °F 30.00 in Calm     88 % 0.00 in
06:15 35.1 °F 32.2 °F 30.00 in Calm     89 % 0.00 in
06:30 34.7 °F 32.0 °F 30.00 in Calm     90 % 0.00 in
06:45 34.3 °F 32.0 °F 30.00 in Calm     91 % 0.00 in
07:00 34.0 °F 31.6 °F 30.00 in Calm     91 % 0.00 in
07:15 33.8 °F 31.6 °F 30.00 in Calm     92 % 0.00 in
07:30 33.6 °F 31.6 °F 30.01 in Calm     92 % 0.00 in
07:45 33.4 °F 31.3 °F 30.01 in Calm     92 % 0.00 in
08:00 33.1 °F 31.3 °F 30.01 in Calm     93 % 0.00 in
08:15 32.7 °F 30.9 °F 30.01 in Calm     93 % 0.00 in
08:30 32.5 °F 30.7 °F 30.02 in Calm     93 % 0.00 in
08:45 32.4 °F 30.9 °F 30.01 in Calm     94 % 0.00 in
09:00 32.4 °F 30.7 °F 30.01 in Calm     94 % 0.00 in
09:15 32.2 °F 30.6 °F 30.01 in Calm     94 % 0.00 in
09:30 32.2 °F 30.6 °F 30.02 in Calm     94 % 0.00 in
09:45 32.4 °F 30.7 °F 30.02 in Calm     94 % 0.00 in
10:00 32.4 °F 31.1 °F 30.02 in Calm     95 % 0.00 in
10:15 32.5 °F 31.3 °F 30.02 in Calm     95 % 0.00 in
10:30 32.7 °F 31.5 °F 30.03 in Calm     95 % 0.00 in
10:45 32.9 °F 31.3 °F 30.03 in Calm     94 % 0.00 in
11:00 33.1 °F 31.5 °F 30.03 in Calm     94 % 0.00 in
11:15 33.3 °F 31.6 °F 30.03 in Calm     94 % 0.00 in
11:30 33.3 °F 31.8 °F 30.04 in Calm     94 % 0.00 in
11:45 33.4 °F 31.8 °F 30.03 in Calm     94 % 0.00 in
12:00 33.4 °F 31.8 °F 30.04 in Calm     94 % 0.00 in
12:15 33.4 °F 31.8 °F 30.04 in Calm     94 % 0.00 in
12:30 33.4 °F 31.8 °F 30.04 in Calm     94 % 0.00 in
12:45 33.4 °F 32.0 °F 30.04 in Calm     94 % 0.00 in
13:00 33.6 °F 32.0 °F 30.03 in Calm     94 % 0.00 in
13:15 34.0 °F 32.2 °F 30.03 in Calm     93 % 0.00 in
13:30 34.2 °F 32.4 °F 30.03 in Calm     93 % 0.00 in
13:45 34.3 °F 32.5 °F 30.03 in Calm     93 % 0.00 in
14:00 34.3 °F 32.4 °F 30.03 in Calm     92 % 0.00 in
14:15 34.5 °F 32.4 °F 30.03 in Calm     92 % 0.00 in
14:30 34.5 °F 32.4 °F 30.03 in Calm     92 % 0.00 in
14:45 34.5 °F 32.5 °F 30.03 in Calm     92 % 0.00 in
15:00 34.5 °F 32.4 °F 30.03 in Calm     92 % 0.00 in
15:15 34.5 °F 32.4 °F 30.03 in Calm     92 % 0.00 in
15:30 34.3 °F 32.0 °F 30.03 in Calm     91 % 0.00 in
15:45 34.2 °F 31.8 °F 30.03 in Calm     91 % 0.00 in
16:00 34.0 °F 31.6 °F 30.03 in Calm     91 % 0.00 in
16:15 33.6 °F 31.3 °F 30.03 in Calm     91 % 0.00 in
16:30 33.4 °F 31.1 °F 30.03 in Calm     91 % 0.00 in
16:45 33.1 °F 30.7 °F 30.03 in Calm     91 % 0.00 in
17:00 32.5 °F 30.2 °F 30.04 in Calm     91 % 0.00 in
17:15 32.2 °F 29.8 °F 30.04 in Calm     91 % 0.00 in
17:30 32.2 °F 30.0 °F 30.04 in Calm     92 % 0.00 in
17:45 32.2 °F 29.8 °F 30.04 in Calm     91 % 0.00 in
18:00 32.0 °F 29.7 °F 30.04 in Calm     91 % 0.00 in
18:15 32.0 °F 29.7 °F 30.05 in Calm     91 % 0.00 in
18:30 32.0 °F 29.7 °F 30.05 in Calm     91 % 0.00 in
18:45 32.2 °F 29.8 °F 30.05 in Calm     91 % 0.00 in
19:00 32.2 °F 29.8 °F 30.05 in Calm     91 % 0.00 in
19:15 32.0 °F 30.0 °F 30.05 in Calm     92 % 0.00 in
19:30 32.0 °F 30.0 °F 30.05 in Calm     92 % 0.00 in
19:45 32.0 °F 30.0 °F 30.05 in Calm     92 % 0.00 in
20:00 31.8 °F 29.8 °F 30.05 in Calm     92 % 0.00 in
20:15 31.8 °F 30.0 °F 30.05 in Calm     93 % 0.00 in
20:30 31.6 °F 29.8 °F 30.05 in Calm     93 % 0.00 in
20:45 31.6 °F 29.8 °F 30.05 in Calm     93 % 0.00 in
21:00 31.5 °F 30.0 °F 30.05 in Calm     94 % 0.00 in
21:15 31.5 °F 29.8 °F 30.05 in Calm     94 % 0.00 in
21:30 31.5 °F 29.8 °F 30.05 in Calm     94 % 0.00 in
21:45 31.5 °F 30.2 °F 30.05 in Calm     95 % 0.00 in
22:00 31.5 °F 30.2 °F 30.05 in Calm     95 % 0.00 in
22:15 31.5 °F 30.2 °F 30.05 in Calm     95 % 0.00 in
22:30 31.5 °F 30.2 °F 30.05 in Calm     95 % 0.00 in
22:45 31.5 °F 30.2 °F 30.05 in Calm     95 % 0.00 in
23:00 31.5 °F 30.2 °F 30.05 in Calm     95 % 0.00 in
23:15 31.5 °F 30.6 °F 30.05 in Calm     96 % 0.00 in
23:30 31.6 °F 30.6 °F 30.05 in Calm     96 % 0.00 in
23:45 31.6 °F 30.6 °F 30.05 in Calm     96 % 0.00 in
Esan sääasema
Terveisin Weather Underground - 2.75 mb

Alkuperäinen skripti  Jim McMurry - jmcmurry@mwt.net Sovitettu myös templatelle  Wim van der Kuil - Leuven-Template.eu

Laitteet joita käytämme:

Sääasema
Davis VP2

Sääasemaohjelma
Cumulus

Sääaseman tietokone
Asus EeePC

Palveluntarjoaja
Suncomet

Davis VP2

Cumulus

Asus EeePC

Suncomet